Weather History for Athens McMinn County Airport, TN

Change the Weather History Date:

Thursday, December 12, 2013

  Actual Average Record
Temperature  
Mean Temperature 29 °F -  
Max Temperature 37 °F 51 °F 37 °F (2013)
Min Temperature 21 °F 32 °F 21 °F (2013)
Degree Days  
Heating Degree Days 36    
Moisture  
Dew Point 18 °F    
Average Humidity 68    
Maximum Humidity 93    
Minimum Humidity 33    
Precipitation  
Precipitation 0.00 in - - ()
Sea Level Pressure  
Sea Level Pressure 30.47 in    
Wind  
Wind Speed 2 mph (NNE)    
Max Wind Speed 6 mph    
Max Gust Speed -    
Visibility 10 miles    
Events      
Averages and records for this station are not official NWS values.
T = Trace of Precipitation, MM = Missing Value Source: NWS Daily Summary

Daily Weather History Graph

Daily Weather History Graph

Search for Another Location

Airport:

Trip Planner

Search our weather history database for the weather conditions in past years. The results will help you decide how hot, cold, wet, or windy it might be!

Date:

Astronomy

Dec. 12, 2013 Rise Set
Actual Time 7:38 AM EST 5:26 PM EST
Civil Twilight 7:09 AM EST 5:54 PM EST
Nautical Twilight 6:37 AM EST 6:26 PM EST
Astronomical Twilight 6:07 AM EST 6:57 PM EST
Moon 2:26 PM EST (12/12) 3:07 AM EST (12/12)
Length of Visible Light 10h 44m
Length of Day
9h 48m
Waxing Gibbous, 80% of the Moon is Illuminated
Dec 12
Waxing Gibbous
Dec 17
Full
Dec 25
Last Quarter
Jan 1
New
Jan 7
First Quarter

Hourly Weather History & Observations

Time (EST) Temp. Windchill Dew Point Humidity Pressure Visibility Wind Dir Wind Speed Gust Speed Precip Events Conditions
12:35 AM 26.6 °F - 24.8 °F 93% 30.44 in 10.0 mi Calm Calm - N/A   Clear
12:55 AM 26.6 °F 22.6 °F 24.8 °F 93% 30.44 in 10.0 mi Variable 3.5 mph - N/A   Clear
1:15 AM 30.2 °F 26.7 °F 23.0 °F 75% 30.45 in 10.0 mi Variable 3.5 mph - N/A   Clear
1:35 AM 30.2 °F - 23.0 °F 75% 30.45 in 10.0 mi Calm Calm - N/A   Clear
1:55 AM 28.4 °F - 23.0 °F 80% 30.45 in 10.0 mi Calm Calm - N/A   Clear
2:15 AM 28.4 °F 24.6 °F 23.0 °F 80% 30.45 in 10.0 mi Variable 3.5 mph - N/A   Clear
2:35 AM 28.4 °F - 23.0 °F 80% 30.46 in 10.0 mi Calm Calm - N/A   Clear
2:55 AM 28.4 °F 24.6 °F 21.2 °F 74% 30.46 in 10.0 mi NNE 3.5 mph - N/A   Clear
3:15 AM 26.6 °F 22.6 °F 21.2 °F 80% 30.46 in 10.0 mi NE 3.5 mph - N/A   Clear
3:35 AM 26.6 °F 22.6 °F 21.2 °F 80% 30.46 in 10.0 mi NNE 3.5 mph - N/A   Clear
3:55 AM 26.6 °F - 21.2 °F 80% 30.46 in 10.0 mi Calm Calm - N/A   Clear
4:15 AM 26.6 °F - 21.2 °F 80% 30.45 in 10.0 mi Calm Calm - N/A   Clear
4:35 AM 26.6 °F - 21.2 °F 80% 30.46 in 10.0 mi Calm Calm - N/A   Clear
4:55 AM 26.6 °F 21.2 °F 21.2 °F 80% 30.47 in 10.0 mi Variable 4.6 mph - N/A   Clear
5:15 AM 24.8 °F - 19.4 °F 80% 30.48 in 10.0 mi Calm Calm - N/A   Clear
5:35 AM 24.8 °F - 19.4 °F 80% 30.48 in 10.0 mi Calm Calm - N/A   Clear
5:55 AM 24.8 °F - 19.4 °F 80% 30.50 in 10.0 mi Calm Calm - N/A   Clear
6:15 AM 24.8 °F - 19.4 °F 80% 30.50 in 10.0 mi Calm Calm - N/A   Scattered Clouds
6:35 AM 24.8 °F - 19.4 °F 80% 30.50 in 10.0 mi Calm Calm - N/A   Partly Cloudy
6:55 AM 24.8 °F 20.5 °F 17.6 °F 74% 30.50 in 10.0 mi Variable 3.5 mph - N/A   Clear
7:15 AM 24.8 °F - 17.6 °F 74% 30.50 in 10.0 mi Calm Calm - N/A   Clear
7:35 AM 23.0 °F 18.4 °F 17.6 °F 80% 30.50 in 10.0 mi NNE 3.5 mph - N/A   Partly Cloudy
7:55 AM 24.8 °F - 17.6 °F 74% 30.51 in 10.0 mi Calm Calm - N/A   Mostly Cloudy
8:15 AM 24.8 °F - 17.6 °F 74% 30.51 in 10.0 mi Calm Calm - N/A   Overcast
8:35 AM 24.8 °F 20.5 °F 17.6 °F 74% 30.52 in 10.0 mi NNE 3.5 mph - N/A   Overcast
8:55 AM 24.8 °F - 17.6 °F 74% 30.52 in 10.0 mi Calm Calm - N/A   Mostly Cloudy
9:15 AM 26.6 °F 22.6 °F 17.6 °F 69% 30.53 in 10.0 mi NNE 3.5 mph - N/A   Mostly Cloudy
9:35 AM 26.6 °F 21.2 °F 19.4 °F 74% 30.54 in 10.0 mi Variable 4.6 mph - N/A   Overcast
9:55 AM 26.6 °F 22.6 °F 19.4 °F 74% 30.54 in 10.0 mi Variable 3.5 mph - N/A   Scattered Clouds
10:15 AM 28.4 °F 24.6 °F 19.4 °F 69% 30.54 in 10.0 mi Variable 3.5 mph - N/A   Partly Cloudy
10:35 AM 30.2 °F 25.4 °F 19.4 °F 64% 30.54 in 10.0 mi North 4.6 mph - N/A   Clear
10:55 AM 30.2 °F 26.7 °F 19.4 °F 64% 30.55 in 10.0 mi Variable 3.5 mph - N/A   Clear
11:15 AM 30.2 °F 25.4 °F 19.4 °F 64% 30.55 in 10.0 mi Variable 4.6 mph - N/A   Clear
11:35 AM 32.0 °F 27.5 °F 19.4 °F 60% 30.54 in 10.0 mi North 4.6 mph - N/A   Clear
11:55 AM 32.0 °F 28.7 °F 19.4 °F 60% 30.53 in 10.0 mi Variable 3.5 mph - N/A   Clear
12:15 PM 33.8 °F 28.6 °F 17.6 °F 52% 30.53 in 10.0 mi Variable 5.8 mph - N/A   Clear
12:35 PM 33.8 °F 28.6 °F 19.4 °F 56% 30.52 in 10.0 mi Variable 5.8 mph - N/A   Clear
12:55 PM 33.8 °F 29.6 °F 17.6 °F 52% 30.51 in 10.0 mi NNE 4.6 mph - N/A   Clear
1:15 PM 35.6 °F 32.8 °F 15.8 °F 44% 30.50 in 10.0 mi Variable 3.5 mph - N/A   Clear
1:35 PM 35.6 °F 31.7 °F 15.8 °F 44% 30.50 in 10.0 mi NW 4.6 mph - N/A   Clear
1:55 PM 35.6 °F 30.7 °F 12.2 °F 38% 30.49 in 10.0 mi NNW 5.8 mph - N/A   Clear
2:15 PM 35.6 °F 31.7 °F 12.2 °F 38% 30.48 in 10.0 mi NW 4.6 mph - N/A   Clear
2:35 PM 37.4 °F 32.8 °F 12.2 °F 36% 30.48 in 10.0 mi NNE 5.8 mph - N/A   Clear
2:55 PM 37.4 °F 33.8 °F 12.2 °F 36% 30.47 in 10.0 mi Variable 4.6 mph - N/A   Clear
3:15 PM 37.4 °F 34.9 °F 12.2 °F 36% 30.46 in 10.0 mi NNE 3.5 mph - N/A   Clear
3:55 PM 37.4 °F - 10.4 °F 33% 30.45 in 10.0 mi Calm Calm - N/A   Clear
4:15 PM 37.4 °F - 10.4 °F 33% 30.45 in 10.0 mi Calm Calm - N/A   Clear
4:35 PM 37.4 °F - 10.4 °F 33% 30.45 in 10.0 mi Calm Calm - N/A   Clear
4:55 PM 35.6 °F 32.8 °F 12.2 °F 38% 30.45 in 10.0 mi NE 3.5 mph - N/A   Clear
5:15 PM 35.6 °F 32.8 °F 12.2 °F 38% 30.45 in 10.0 mi NE 3.5 mph - N/A   Clear
5:35 PM 33.8 °F - 12.2 °F 41% 30.45 in 10.0 mi Calm Calm - N/A   Clear
5:55 PM 30.2 °F - 19.4 °F 64% 30.45 in 10.0 mi Calm Calm - N/A   Clear
6:15 PM 30.2 °F - 15.8 °F 55% 30.45 in 10.0 mi Calm Calm - N/A   Clear
6:35 PM 28.4 °F - 19.4 °F 69% 30.44 in 10.0 mi Calm Calm - N/A   Clear
6:55 PM 26.6 °F - 17.6 °F 69% 30.45 in 10.0 mi Calm Calm - N/A   Clear
7:15 PM 26.6 °F - 17.6 °F 69% 30.45 in 10.0 mi Calm Calm - N/A   Clear
7:35 PM 26.6 °F - 17.6 °F 69% 30.44 in 10.0 mi Calm Calm - N/A   Clear
7:55 PM 24.8 °F - 19.4 °F 80% 30.44 in 10.0 mi Calm Calm - N/A   Clear
8:15 PM 24.8 °F - 17.6 °F 74% 30.44 in 10.0 mi Calm Calm - N/A   Clear
8:35 PM 24.8 °F - 17.6 °F 74% 30.44 in 10.0 mi Calm Calm - N/A   Clear
8:55 PM 24.8 °F - 17.6 °F 74% 30.43 in 10.0 mi Calm Calm - N/A   Clear
9:15 PM 24.8 °F - 19.4 °F 80% 30.43 in 10.0 mi Calm Calm - N/A   Clear
9:35 PM 23.0 °F - 17.6 °F 80% 30.43 in 10.0 mi Calm Calm - N/A   Clear
9:55 PM 21.2 °F - 19.4 °F 93% 30.42 in 10.0 mi Calm Calm - N/A   Clear
10:15 PM 23.0 °F - 19.4 °F 86% 30.42 in 10.0 mi Calm Calm - N/A   Clear
10:35 PM 21.2 °F - 17.6 °F 86% 30.43 in 10.0 mi Calm Calm - N/A   Clear
10:55 PM 21.2 °F - 19.4 °F 93% 30.42 in 10.0 mi Calm Calm - N/A   Clear
11:15 PM 21.2 °F - 19.4 °F 93% 30.42 in 10.0 mi Calm Calm - N/A   Clear
11:35 PM 23.0 °F - 19.4 °F 86% 30.43 in 10.0 mi Calm Calm - N/A   Clear
11:55 PM 21.2 °F - 19.4 °F 93% 30.44 in 10.0 mi Calm Calm - N/A   Clear